owner,sensor,date,latitude,longitude,vertical_datum,wind_speed,wind_to_direction,wind_speed_of_gust,qcFlag 
WAVCIS,ioos:station:WAVCIS:CSI06:1,2008-12-01T00:00:00Z,28.8667,-90.4833,10.0,17.77,296.0,,'11111222,11111222,99999999' 
WAVCIS,ioos:station:WAVCIS:CSI06:1,2008-12-01T01:00:00Z,28.8667,-90.4833,10.0,15.95,295.0,,'11111222,11111222,99999999' 
WAVCIS,ioos:station:WAVCIS:CSI06:1,2008-12-01T02:00:00Z,28.8667,-90.4833,10.0,17.75,309.0,,'11111222,11111222,99999999' 
WAVCIS,ioos:station:WAVCIS:CSI06:1,2008-12-01T03:00:00Z,28.8667,-90.4833,10.0,15.63,310.0,,'11111222,11111222,99999999' 
WAVCIS,ioos:station:WAVCIS:CSI06:1,2008-12-01T04:00:00Z,28.8667,-90.4833,10.0,16.26,300.0,,'11111222,11111222,99999999' 
WAVCIS,ioos:station:WAVCIS:CSI06:1,2008-12-01T05:00:00Z,28.8667,-90.4833,10.0,17.98,304.0,,'11111222,11111222,99999999' 
WAVCIS,ioos:station:WAVCIS:CSI06:1,2008-12-01T06:00:00Z,28.8667,-90.4833,10.0,16.72,300.0,,'11111222,11111222,99999999' 
WAVCIS,ioos:station:WAVCIS:CSI06:1,2008-12-01T07:00:00Z,28.8667,-90.4833,10.0,14.52,294.0,,'11111222,11111222,99999999' 
WAVCIS,ioos:station:WAVCIS:CSI06:1,2008-12-01T08:00:00Z,28.8667,-90.4833,10.0,14.25,290.0,,'11111222,11111222,99999999' 
WAVCIS,ioos:station:WAVCIS:CSI06:1,2008-12-01T09:00:00Z,28.8667,-90.4833,10.0,15.34,293.0,,'11111222,11111222,99999999' 
WAVCIS,ioos:station:WAVCIS:CSI06:1,2008-12-01T10:00:00Z,28.8667,-90.4833,10.0,14.42,305.0,,'11111222,11111222,99999999' 
WAVCIS,ioos:station:WAVCIS:CSI06:1,2008-12-01T11:00:00Z,28.8667,-90.4833,10.0,12.29,294.0,,'11111222,11111222,99999999' 
WAVCIS,ioos:station:WAVCIS:CSI06:1,2008-12-01T12:00:00Z,28.8667,-90.4833,10.0,13.98,296.0,,'11111222,11111222,99999999' 
WAVCIS,ioos:station:WAVCIS:CSI06:1,2008-12-01T13:00:00Z,28.8667,-90.4833,10.0,12.18,301.0,,'11111222,11111222,99999999' 
WAVCIS,ioos:station:WAVCIS:CSI06:1,2008-12-01T14:00:00Z,28.8667,-90.4833,10.0,12.44,298.0,,'11111222,11111222,99999999' 
WAVCIS,ioos:station:WAVCIS:CSI06:1,2008-12-01T15:00:00Z,28.8667,-90.4833,10.0,8.72,295.0,,'11111222,11111222,99999999' 
WAVCIS,ioos:station:WAVCIS:CSI06:1,2008-12-01T16:00:00Z,28.8667,-90.4833,10.0,9.89,285.0,,'11111222,11111222,99999999' 
WAVCIS,ioos:station:WAVCIS:CSI06:1,2008-12-01T17:00:00Z,28.8667,-90.4833,10.0,15.76,305.0,,'11111222,11111222,99999999' 
WAVCIS,ioos:station:WAVCIS:CSI06:1,2008-12-01T18:00:00Z,28.8667,-90.4833,10.0,16.82,294.0,,'11111222,11111222,99999999' 
WAVCIS,ioos:station:WAVCIS:CSI06:1,2008-12-01T19:00:00Z,28.8667,-90.4833,10.0,17.72,289.0,,'11111222,11111222,99999999' 
WAVCIS,ioos:station:WAVCIS:CSI06:1,2008-12-01T20:00:00Z,28.8667,-90.4833,10.0,15.18,283.0,,'11111222,11111222,99999999' 
WAVCIS,ioos:station:WAVCIS:CSI06:1,2008-12-01T21:00:00Z,28.8667,-90.4833,10.0,14.61,285.0,,'11111222,11111222,99999999' 
WAVCIS,ioos:station:WAVCIS:CSI06:1,2008-12-01T22:00:00Z,28.8667,-90.4833,10.0,16.02,296.0,,'11111222,11111222,99999999' 
WAVCIS,ioos:station:WAVCIS:CSI06:1,2008-12-01T23:00:00Z,28.8667,-90.4833,10.0,14.95,296.0,,'11111222,11111222,99999999' 
WAVCIS,ioos:station:WAVCIS:CSI06:1,2008-12-02T00:00:00Z,28.8667,-90.4833,10.0,15.18,307.0,,'11111222,11111222,99999999' 
WAVCIS,ioos:station:WAVCIS:CSI06:1,2008-12-02T01:00:00Z,28.8667,-90.4833,10.0,14.51,328.0,,'11111222,11111222,99999999' 
WAVCIS,ioos:station:WAVCIS:CSI06:1,2008-12-02T02:00:00Z,28.8667,-90.4833,10.0,14.8,324.0,,'11111222,11111222,99999999' 
WAVCIS,ioos:station:WAVCIS:CSI06:1,2008-12-02T03:00:00Z,28.8667,-90.4833,10.0,10.86,333.0,,'11111222,11111222,99999999' 
WAVCIS,ioos:station:WAVCIS:CSI06:1,2008-12-02T04:00:00Z,28.8667,-90.4833,10.0,11.09,329.0,,'11111222,11111222,99999999' 
WAVCIS,ioos:station:WAVCIS:CSI06:1,2008-12-02T05:00:00Z,28.8667,-90.4833,10.0,9.09,334.0,,'11111222,11111222,99999999' 
WAVCIS,ioos:station:WAVCIS:CSI06:1,2008-12-02T06:00:00Z,28.8667,-90.4833,10.0,7.71,338.0,,'11111222,11111222,99999999' 
WAVCIS,ioos:station:WAVCIS:CSI06:1,2008-12-02T07:00:00Z,28.8667,-90.4833,10.0,7.39,340.0,,'11111222,11111222,99999999' 
WAVCIS,ioos:station:WAVCIS:CSI06:1,2008-12-02T08:00:00Z,28.8667,-90.4833,10.0,6.335,340.0,,'11111222,11111222,99999999' 
WAVCIS,ioos:station:WAVCIS:CSI06:1,2008-12-02T09:00:00Z,28.8667,-90.4833,10.0,5.548,358.0,,'11111222,11111222,99999999' 
WAVCIS,ioos:station:WAVCIS:CSI06:1,2008-12-02T10:00:00Z,28.8667,-90.4833,10.0,4.578,7.0,,'11111222,11111222,99999999' 
WAVCIS,ioos:station:WAVCIS:CSI06:1,2008-12-02T11:00:00Z,28.8667,-90.4833,10.0,3.464,15.0,,'11111222,11111222,99999999' 
WAVCIS,ioos:station:WAVCIS:CSI06:1,2008-12-02T12:00:00Z,28.8667,-90.4833,10.0,2.159,37.0,,'11111222,11111222,99999999' 
WAVCIS,ioos:station:WAVCIS:CSI06:1,2008-12-02T13:00:00Z,28.8667,-90.4833,10.0,1.734,70.0,,'11111222,11111222,99999999' 
WAVCIS,ioos:station:WAVCIS:CSI06:1,2008-12-02T14:00:00Z,28.8667,-90.4833,10.0,2.213,75.0,,'11111222,11111222,99999999' 
WAVCIS,ioos:station:WAVCIS:CSI06:1,2008-12-02T15:00:00Z,28.8667,-90.4833,10.0,2.739,135.0,,'11111222,11111222,99999999' 
WAVCIS,ioos:station:WAVCIS:CSI06:1,2008-12-02T16:00:00Z,28.8667,-90.4833,10.0,2.481,145.0,,'11111222,11111222,99999999' 
WAVCIS,ioos:station:WAVCIS:CSI06:1,2008-12-02T17:00:00Z,28.8667,-90.4833,10.0,2.941,158.0,,'11111222,11111222,99999999' 
WAVCIS,ioos:station:WAVCIS:CSI06:1,2008-12-02T18:00:00Z,28.8667,-90.4833,10.0,3.374,166.0,,'11111222,11111222,99999999' 
WAVCIS,ioos:station:WAVCIS:CSI06:1,2008-12-02T19:00:00Z,28.8667,-90.4833,10.0,3.471,191.0,,'11111222,11111222,99999999' 
WAVCIS,ioos:station:WAVCIS:CSI06:1,2008-12-02T20:00:00Z,28.8667,-90.4833,10.0,2.303,190.0,,'11111222,11111222,99999999' 
WAVCIS,ioos:station:WAVCIS:CSI06:1,2008-12-02T21:00:00Z,28.8667,-90.4833,10.0,2.761,158.0,,'11111222,11111222,99999999' 
WAVCIS,ioos:station:WAVCIS:CSI06:1,2008-12-02T22:00:00Z,28.8667,-90.4833,10.0,3.762,168.0,,'11111222,11111222,99999999' 
WAVCIS,ioos:station:WAVCIS:CSI06:1,2008-12-02T23:00:00Z,28.8667,-90.4833,10.0,4.158,164.0,,'11111222,11111222,99999999' 
WAVCIS,ioos:station:WAVCIS:CSI06:1,2008-12-03T00:00:00Z,28.8667,-90.4833,10.0,4.153,169.0,,'11111222,11111222,99999999' 
WAVCIS,ioos:station:WAVCIS:CSI06:1,2008-12-03T01:00:00Z,28.8667,-90.4833,10.0,4.776,149.0,,'11111222,11111222,99999999' 
WAVCIS,ioos:station:WAVCIS:CSI06:1,2008-12-03T02:00:00Z,28.8667,-90.4833,10.0,5.262,164.0,,'11111222,11111222,99999999' 
WAVCIS,ioos:station:WAVCIS:CSI06:1,2008-12-03T03:00:00Z,28.8667,-90.4833,10.0,5.838,149.0,,'11111222,11111222,99999999' 
WAVCIS,ioos:station:WAVCIS:CSI06:1,2008-12-03T04:00:00Z,28.8667,-90.4833,10.0,7.68,150.0,,'11111222,11111222,99999999' 
WAVCIS,ioos:station:WAVCIS:CSI06:1,2008-12-03T05:00:00Z,28.8667,-90.4833,10.0,8.3,149.0,,'11111222,11111222,99999999' 
WAVCIS,ioos:station:WAVCIS:CSI06:1,2008-12-03T06:00:00Z,28.8667,-90.4833,10.0,8.34,151.0,,'11111222,11111222,99999999' 
WAVCIS,ioos:station:WAVCIS:CSI06:1,2008-12-03T07:00:00Z,28.8667,-90.4833,10.0,9.44,146.0,,'11111222,11111222,99999999' 
WAVCIS,ioos:station:WAVCIS:CSI06:1,2008-12-03T08:00:00Z,28.8667,-90.4833,10.0,10.13,146.0,,'11111222,11111222,99999999' 
WAVCIS,ioos:station:WAVCIS:CSI06:1,2008-12-03T09:00:00Z,28.8667,-90.4833,10.0,9.93,150.0,,'11111222,11111222,99999999' 
WAVCIS,ioos:station:WAVCIS:CSI06:1,2008-12-03T10:00:00Z,28.8667,-90.4833,10.0,9.92,155.0,,'11111222,11111222,99999999' 
WAVCIS,ioos:station:WAVCIS:CSI06:1,2008-12-03T11:00:00Z,28.8667,-90.4833,10.0,9.92,159.0,,'11111222,11111222,99999999' 
WAVCIS,ioos:station:WAVCIS:CSI06:1,2008-12-03T12:00:00Z,28.8667,-90.4833,10.0,10.46,156.0,,'11111222,11111222,99999999' 
WAVCIS,ioos:station:WAVCIS:CSI06:1,2008-12-03T13:00:00Z,28.8667,-90.4833,10.0,10.52,169.0,,'11111222,11111222,99999999' 
WAVCIS,ioos:station:WAVCIS:CSI06:1,2008-12-03T14:00:00Z,28.8667,-90.4833,10.0,10.44,169.0,,'11111222,11111222,99999999' 
WAVCIS,ioos:station:WAVCIS:CSI06:1,2008-12-03T15:00:00Z,28.8667,-90.4833,10.0,10.41,173.0,,'11111222,11111222,99999999' 
WAVCIS,ioos:station:WAVCIS:CSI06:1,2008-12-03T16:00:00Z,28.8667,-90.4833,10.0,10.18,172.0,,'11111222,11111222,99999999' 
WAVCIS,ioos:station:WAVCIS:CSI06:1,2008-12-03T17:00:00Z,28.8667,-90.4833,10.0,9.64,172.0,,'11111222,11111222,99999999' 
WAVCIS,ioos:station:WAVCIS:CSI06:1,2008-12-03T18:00:00Z,28.8667,-90.4833,10.0,8.83,169.0,,'11111222,11111222,99999999' 
WAVCIS,ioos:station:WAVCIS:CSI06:1,2008-12-03T19:00:00Z,28.8667,-90.4833,10.0,7.86,177.0,,'11111222,11111222,99999999' 
WAVCIS,ioos:station:WAVCIS:CSI06:1,2008-12-03T20:00:00Z,28.8667,-90.4833,10.0,6.854,180.0,,'11111222,11111222,99999999' 
WAVCIS,ioos:station:WAVCIS:CSI06:1,2008-12-03T21:00:00Z,28.8667,-90.4833,10.0,7.35,172.0,,'11111222,11111222,99999999' 
WAVCIS,ioos:station:WAVCIS:CSI06:1,2008-12-03T22:00:00Z,28.8667,-90.4833,10.0,7.74,163.0,,'11111222,11111222,99999999' 
WAVCIS,ioos:station:WAVCIS:CSI06:1,2008-12-03T23:00:00Z,28.8667,-90.4833,10.0,6.974,171.0,,'11111222,11111222,99999999' 
WAVCIS,ioos:station:WAVCIS:CSI06:1,2008-12-04T00:00:00Z,28.8667,-90.4833,10.0,5.142,168.0,,'11111222,11111222,99999999' 
WAVCIS,ioos:station:WAVCIS:CSI06:1,2008-12-04T01:00:00Z,28.8667,-90.4833,10.0,5.581,180.0,,'11111222,11111222,99999999' 
WAVCIS,ioos:station:WAVCIS:CSI06:1,2008-12-04T02:00:00Z,28.8667,-90.4833,10.0,6.43,170.0,,'11111222,11111222,99999999' 
WAVCIS,ioos:station:WAVCIS:CSI06:1,2008-12-04T03:00:00Z,28.8667,-90.4833,10.0,6.886,184.0,,'11111222,11111222,99999999' 
WAVCIS,ioos:station:WAVCIS:CSI06:1,2008-12-04T04:00:00Z,28.8667,-90.4833,10.0,4.698,171.0,,'11111222,11111222,99999999' 
WAVCIS,ioos:station:WAVCIS:CSI06:1,2008-12-04T05:00:00Z,28.8667,-90.4833,10.0,7.02,182.0,,'11111222,11111222,99999999' 
WAVCIS,ioos:station:WAVCIS:CSI06:1,2008-12-04T06:00:00Z,28.8667,-90.4833,10.0,7.18,183.0,,'11111222,11111222,99999999' 
WAVCIS,ioos:station:WAVCIS:CSI06:1,2008-12-04T07:00:00Z,28.8667,-90.4833,10.0,7.57,192.0,,'11111222,11111222,99999999' 
WAVCIS,ioos:station:WAVCIS:CSI06:1,2008-12-04T08:00:00Z,28.8667,-90.4833,10.0,7.9,202.0,,'11111222,11111222,99999999' 
WAVCIS,ioos:station:WAVCIS:CSI06:1,2008-12-04T09:00:00Z,28.8667,-90.4833,10.0,7.99,210.0,,'11111222,11111222,99999999' 
WAVCIS,ioos:station:WAVCIS:CSI06:1,2008-12-04T10:00:00Z,28.8667,-90.4833,10.0,10.93,221.0,,'11111222,11111222,99999999' 
WAVCIS,ioos:station:WAVCIS:CSI06:1,2008-12-04T11:00:00Z,28.8667,-90.4833,10.0,8.08,198.0,,'11111222,11111222,99999999' 
WAVCIS,ioos:station:WAVCIS:CSI06:1,2008-12-04T12:00:00Z,28.8667,-90.4833,10.0,9.07,185.0,,'11111222,11111222,99999999' 
WAVCIS,ioos:station:WAVCIS:CSI06:1,2008-12-04T13:00:00Z,28.8667,-90.4833,10.0,9.06,200.0,,'11111222,11111222,99999999' 
WAVCIS,ioos:station:WAVCIS:CSI06:1,2008-12-04T14:00:00Z,28.8667,-90.4833,10.0,8.34,194.0,,'11111222,11111222,99999999' 
WAVCIS,ioos:station:WAVCIS:CSI06:1,2008-12-04T15:00:00Z,28.8667,-90.4833,10.0,7.08,229.0,,'11111222,11111222,99999999' 
WAVCIS,ioos:station:WAVCIS:CSI06:1,2008-12-04T16:00:00Z,28.8667,-90.4833,10.0,3.846,212.0,,'11111222,11111222,99999999' 
WAVCIS,ioos:station:WAVCIS:CSI06:1,2008-12-04T17:00:00Z,28.8667,-90.4833,10.0,4.729,245.0,,'11111222,11111222,99999999' 
WAVCIS,ioos:station:WAVCIS:CSI06:1,2008-12-04T18:00:00Z,28.8667,-90.4833,10.0,2.594,263.0,,'11111222,11111222,99999999' 
WAVCIS,ioos:station:WAVCIS:CSI06:1,2008-12-04T19:00:00Z,28.8667,-90.4833,10.0,3.856,270.0,,'11111222,11111222,99999999' 
WAVCIS,ioos:station:WAVCIS:CSI06:1,2008-12-04T20:00:00Z,28.8667,-90.4833,10.0,4.342,330.0,,'11111222,11111222,99999999' 
WAVCIS,ioos:station:WAVCIS:CSI06:1,2008-12-04T21:00:00Z,28.8667,-90.4833,10.0,5.325,324.0,,'11111222,11111222,99999999' 
WAVCIS,ioos:station:WAVCIS:CSI06:1,2008-12-04T22:00:00Z,28.8667,-90.4833,10.0,10.45,14.0,,'11111222,11111222,99999999' 
WAVCIS,ioos:station:WAVCIS:CSI06:1,2008-12-04T23:00:00Z,28.8667,-90.4833,10.0,8.26,2.0,,'11111222,11111222,99999999' 
WAVCIS,ioos:station:WAVCIS:CSI06:1,2008-12-05T00:00:00Z,28.8667,-90.4833,10.0,12.69,13.0,,'11111222,11111222,99999999' 
WAVCIS,ioos:station:WAVCIS:CSI06:1,2008-12-05T01:00:00Z,28.8667,-90.4833,10.0,13.25,16.0,,'11111222,11111222,99999999' 
WAVCIS,ioos:station:WAVCIS:CSI06:1,2008-12-05T02:00:00Z,28.8667,-90.4833,10.0,12.75,17.0,,'11111222,11111222,99999999' 
WAVCIS,ioos:station:WAVCIS:CSI06:1,2008-12-05T03:00:00Z,28.8667,-90.4833,10.0,13.99,15.0,,'11111222,11111222,99999999' 
WAVCIS,ioos:station:WAVCIS:CSI06:1,2008-12-05T04:00:00Z,28.8667,-90.4833,10.0,12.7,25.0,,'11111222,11111222,99999999' 
WAVCIS,ioos:station:WAVCIS:CSI06:1,2008-12-05T05:00:00Z,28.8667,-90.4833,10.0,13.24,21.0,,'11111222,11111222,99999999' 
WAVCIS,ioos:station:WAVCIS:CSI06:1,2008-12-05T06:00:00Z,28.8667,-90.4833,10.0,12.58,26.0,,'11111222,11111222,99999999' 
WAVCIS,ioos:station:WAVCIS:CSI06:1,2008-12-05T07:00:00Z,28.8667,-90.4833,10.0,12.66,33.0,,'11111222,11111222,99999999' 
WAVCIS,ioos:station:WAVCIS:CSI06:1,2008-12-05T08:00:00Z,28.8667,-90.4833,10.0,13.04,19.0,,'11111222,11111222,99999999' 
WAVCIS,ioos:station:WAVCIS:CSI06:1,2008-12-05T09:00:00Z,28.8667,-90.4833,10.0,12.24,25.0,,'11111222,11111222,99999999' 
WAVCIS,ioos:station:WAVCIS:CSI06:1,2008-12-05T10:00:00Z,28.8667,-90.4833,10.0,12.65,30.0,,'11111222,11111222,99999999' 
WAVCIS,ioos:station:WAVCIS:CSI06:1,2008-12-05T11:00:00Z,28.8667,-90.4833,10.0,12.34,34.0,,'11111222,11111222,99999999' 
WAVCIS,ioos:station:WAVCIS:CSI06:1,2008-12-05T12:00:00Z,28.8667,-90.4833,10.0,13.26,30.0,,'11111222,11111222,99999999' 
WAVCIS,ioos:station:WAVCIS:CSI06:1,2008-12-05T13:00:00Z,28.8667,-90.4833,10.0,13.57,41.0,,'11111222,11111222,99999999' 
WAVCIS,ioos:station:WAVCIS:CSI06:1,2008-12-05T14:00:00Z,28.8667,-90.4833,10.0,10.03,36.0,,'11111222,11111222,99999999' 
WAVCIS,ioos:station:WAVCIS:CSI06:1,2008-12-05T15:00:00Z,28.8667,-90.4833,10.0,9.12,31.0,,'11111222,11111222,99999999' 
WAVCIS,ioos:station:WAVCIS:CSI06:1,2008-12-05T16:00:00Z,28.8667,-90.4833,10.0,7.46,34.0,,'11111222,11111222,99999999' 
WAVCIS,ioos:station:WAVCIS:CSI06:1,2008-12-05T17:00:00Z,28.8667,-90.4833,10.0,7.46,29.0,,'11111222,11111222,99999999' 
WAVCIS,ioos:station:WAVCIS:CSI06:1,2008-12-05T18:00:00Z,28.8667,-90.4833,10.0,6.988,30.0,,'11111222,11111222,99999999' 
WAVCIS,ioos:station:WAVCIS:CSI06:1,2008-12-05T19:00:00Z,28.8667,-90.4833,10.0,6.455,31.0,,'11111222,11111222,99999999' 
WAVCIS,ioos:station:WAVCIS:CSI06:1,2008-12-05T20:00:00Z,28.8667,-90.4833,10.0,6.397,27.0,,'11111222,11111222,99999999' 
WAVCIS,ioos:station:WAVCIS:CSI06:1,2008-12-05T21:00:00Z,28.8667,-90.4833,10.0,8.64,22.0,,'11111222,11111222,99999999' 
WAVCIS,ioos:station:WAVCIS:CSI06:1,2008-12-05T22:00:00Z,28.8667,-90.4833,10.0,9.51,32.0,,'11111222,11111222,99999999' 
WAVCIS,ioos:station:WAVCIS:CSI06:1,2008-12-05T23:00:00Z,28.8667,-90.4833,10.0,9.37,45.0,,'11111222,11111222,99999999' 
WAVCIS,ioos:station:WAVCIS:CSI06:1,2008-12-06T00:00:00Z,28.8667,-90.4833,10.0,8.52,50.0,,'11111222,11111222,99999999' 
WAVCIS,ioos:station:WAVCIS:CSI06:1,2008-12-06T01:00:00Z,28.8667,-90.4833,10.0,8.64,49.0,,'11111222,11111222,99999999' 
WAVCIS,ioos:station:WAVCIS:CSI06:1,2008-12-06T02:00:00Z,28.8667,-90.4833,10.0,7.57,51.0,,'11111222,11111222,99999999' 
WAVCIS,ioos:station:WAVCIS:CSI06:1,2008-12-06T03:00:00Z,28.8667,-90.4833,10.0,6.578,43.0,,'11111222,11111222,99999999' 
WAVCIS,ioos:station:WAVCIS:CSI06:1,2008-12-06T04:00:00Z,28.8667,-90.4833,10.0,5.107,27.0,,'11111222,11111222,99999999' 
WAVCIS,ioos:station:WAVCIS:CSI06:1,2008-12-06T05:00:00Z,28.8667,-90.4833,10.0,5.103,22.0,,'11111222,11111222,99999999' 
WAVCIS,ioos:station:WAVCIS:CSI06:1,2008-12-06T06:00:00Z,28.8667,-90.4833,10.0,4.586,16.0,,'11111222,11111222,99999999' 
WAVCIS,ioos:station:WAVCIS:CSI06:1,2008-12-06T07:00:00Z,28.8667,-90.4833,10.0,7.02,13.0,,'11111222,11111222,99999999' 
WAVCIS,ioos:station:WAVCIS:CSI06:1,2008-12-06T08:00:00Z,28.8667,-90.4833,10.0,7.68,11.0,,'11111222,11111222,99999999' 
WAVCIS,ioos:station:WAVCIS:CSI06:1,2008-12-06T09:00:00Z,28.8667,-90.4833,10.0,8.6,23.0,,'11111222,11111222,99999999' 
WAVCIS,ioos:station:WAVCIS:CSI06:1,2008-12-06T10:00:00Z,28.8667,-90.4833,10.0,5.309,31.0,,'11111222,11111222,99999999' 
WAVCIS,ioos:station:WAVCIS:CSI06:1,2008-12-06T11:00:00Z,28.8667,-90.4833,10.0,3.703,31.0,,'11111222,11111222,99999999' 
WAVCIS,ioos:station:WAVCIS:CSI06:1,2008-12-06T12:00:00Z,28.8667,-90.4833,10.0,2.205,25.0,,'11111222,11111222,99999999' 
WAVCIS,ioos:station:WAVCIS:CSI06:1,2008-12-06T13:00:00Z,28.8667,-90.4833,10.0,2.183,0.0,,'11111222,11111222,99999999' 
WAVCIS,ioos:station:WAVCIS:CSI06:1,2008-12-06T14:00:00Z,28.8667,-90.4833,10.0,3.839,332.0,,'11111222,11111222,99999999' 
WAVCIS,ioos:station:WAVCIS:CSI06:1,2008-12-06T15:00:00Z,28.8667,-90.4833,10.0,2.53,319.0,,'11111222,11111222,99999999' 
WAVCIS,ioos:station:WAVCIS:CSI06:1,2008-12-06T16:00:00Z,28.8667,-90.4833,10.0,5.171,305.0,,'11111222,11111222,99999999' 
WAVCIS,ioos:station:WAVCIS:CSI06:1,2008-12-06T17:00:00Z,28.8667,-90.4833,10.0,8.91,324.0,,'11111222,11111222,99999999' 
WAVCIS,ioos:station:WAVCIS:CSI06:1,2008-12-06T18:00:00Z,28.8667,-90.4833,10.0,8.01,319.0,,'11111222,11111222,99999999' 
WAVCIS,ioos:station:WAVCIS:CSI06:1,2008-12-06T19:00:00Z,28.8667,-90.4833,10.0,8.02,324.0,,'11111222,11111222,99999999' 
WAVCIS,ioos:station:WAVCIS:CSI06:1,2008-12-06T20:00:00Z,28.8667,-90.4833,10.0,6.697,290.0,,'11111222,11111222,99999999' 
WAVCIS,ioos:station:WAVCIS:CSI06:1,2008-12-06T21:00:00Z,28.8667,-90.4833,10.0,9.52,293.0,,'11111222,11111222,99999999' 
WAVCIS,ioos:station:WAVCIS:CSI06:1,2008-12-06T22:00:00Z,28.8667,-90.4833,10.0,10.85,300.0,,'11111222,11111222,99999999' 
WAVCIS,ioos:station:WAVCIS:CSI06:1,2008-12-06T23:00:00Z,28.8667,-90.4833,10.0,9.07,299.0,,'11111222,11111222,99999999' 
WAVCIS,ioos:station:WAVCIS:CSI06:1,2008-12-07T00:00:00Z,28.8667,-90.4833,10.0,10.42,318.0,,'11111222,11111222,99999999' 
WAVCIS,ioos:station:WAVCIS:CSI06:1,2008-12-07T01:00:00Z,28.8667,-90.4833,10.0,9.97,322.0,,'11111222,11111222,99999999' 
WAVCIS,ioos:station:WAVCIS:CSI06:1,2008-12-07T02:00:00Z,28.8667,-90.4833,10.0,8.89,330.0,,'11111222,11111222,99999999' 
WAVCIS,ioos:station:WAVCIS:CSI06:1,2008-12-07T03:00:00Z,28.8667,-90.4833,10.0,7.37,338.0,,'11111222,11111222,99999999' 
WAVCIS,ioos:station:WAVCIS:CSI06:1,2008-12-07T04:00:00Z,28.8667,-90.4833,10.0,8.62,338.0,,'11111222,11111222,99999999' 
WAVCIS,ioos:station:WAVCIS:CSI06:1,2008-12-07T05:00:00Z,28.8667,-90.4833,10.0,5.182,352.0,,'11111222,11111222,99999999' 
WAVCIS,ioos:station:WAVCIS:CSI06:1,2008-12-07T06:00:00Z,28.8667,-90.4833,10.0,5.041,1.0,,'11111222,11111222,99999999' 
WAVCIS,ioos:station:WAVCIS:CSI06:1,2008-12-07T07:00:00Z,28.8667,-90.4833,10.0,7.19,3.0,,'11111222,11111222,99999999' 
WAVCIS,ioos:station:WAVCIS:CSI06:1,2008-12-07T08:00:00Z,28.8667,-90.4833,10.0,7.17,7.0,,'11111222,11111222,99999999' 
WAVCIS,ioos:station:WAVCIS:CSI06:1,2008-12-07T09:00:00Z,28.8667,-90.4833,10.0,9.81,13.0,,'11111222,11111222,99999999' 
WAVCIS,ioos:station:WAVCIS:CSI06:1,2008-12-07T10:00:00Z,28.8667,-90.4833,10.0,7.82,11.0,,'11111222,11111222,99999999' 
WAVCIS,ioos:station:WAVCIS:CSI06:1,2008-12-07T11:00:00Z,28.8667,-90.4833,10.0,7.97,12.0,,'11111222,11111222,99999999' 
WAVCIS,ioos:station:WAVCIS:CSI06:1,2008-12-07T12:00:00Z,28.8667,-90.4833,10.0,7.87,13.0,,'11111222,11111222,99999999' 
WAVCIS,ioos:station:WAVCIS:CSI06:1,2008-12-07T13:00:00Z,28.8667,-90.4833,10.0,7.39,20.0,,'11111222,11111222,99999999' 
WAVCIS,ioos:station:WAVCIS:CSI06:1,2008-12-07T14:00:00Z,28.8667,-90.4833,10.0,8.02,21.0,,'11111222,11111222,99999999' 
WAVCIS,ioos:station:WAVCIS:CSI06:1,2008-12-07T15:00:00Z,28.8667,-90.4833,10.0,8.24,26.0,,'11111222,11111222,99999999' 
WAVCIS,ioos:station:WAVCIS:CSI06:1,2008-12-07T16:00:00Z,28.8667,-90.4833,10.0,7.77,39.0,,'11111222,11111222,99999999' 
WAVCIS,ioos:station:WAVCIS:CSI06:1,2008-12-07T17:00:00Z,28.8667,-90.4833,10.0,7.64,42.0,,'11111222,11111222,99999999' 
WAVCIS,ioos:station:WAVCIS:CSI06:1,2008-12-07T18:00:00Z,28.8667,-90.4833,10.0,6.292,44.0,,'11111222,11111222,99999999' 
WAVCIS,ioos:station:WAVCIS:CSI06:1,2008-12-07T19:00:00Z,28.8667,-90.4833,10.0,5.46,47.0,,'11111222,11111222,99999999' 
WAVCIS,ioos:station:WAVCIS:CSI06:1,2008-12-07T20:00:00Z,28.8667,-90.4833,10.0,5.408,45.0,,'11111222,11111222,99999999' 
WAVCIS,ioos:station:WAVCIS:CSI06:1,2008-12-07T21:00:00Z,28.8667,-90.4833,10.0,5.737,35.0,,'11111222,11111222,99999999' 
WAVCIS,ioos:station:WAVCIS:CSI06:1,2008-12-07T22:00:00Z,28.8667,-90.4833,10.0,5.813,45.0,,'11111222,11111222,99999999' 
WAVCIS,ioos:station:WAVCIS:CSI06:1,2008-12-07T23:00:00Z,28.8667,-90.4833,10.0,5.862,50.0,,'11111222,11111222,99999999' 
WAVCIS,ioos:station:WAVCIS:CSI06:1,2008-12-08T00:00:00Z,28.8667,-90.4833,10.0,6.419,53.0,,'11111222,11111222,99999999' 
WAVCIS,ioos:station:WAVCIS:CSI06:1,2008-12-08T01:00:00Z,28.8667,-90.4833,10.0,6.517,61.0,,'11111222,11111222,99999999' 
WAVCIS,ioos:station:WAVCIS:CSI06:1,2008-12-08T02:00:00Z,28.8667,-90.4833,10.0,6.62,80.0,,'11111222,11111222,99999999' 
WAVCIS,ioos:station:WAVCIS:CSI06:1,2008-12-08T03:00:00Z,28.8667,-90.4833,10.0,7.13,79.0,,'11111222,11111222,99999999' 
WAVCIS,ioos:station:WAVCIS:CSI06:1,2008-12-08T04:00:00Z,28.8667,-90.4833,10.0,7.66,90.0,,'11111222,11111222,99999999' 
WAVCIS,ioos:station:WAVCIS:CSI06:1,2008-12-08T05:00:00Z,28.8667,-90.4833,10.0,7.81,95.0,,'11111222,11111222,99999999' 
WAVCIS,ioos:station:WAVCIS:CSI06:1,2008-12-08T06:00:00Z,28.8667,-90.4833,10.0,7.32,93.0,,'11111222,11111222,99999999' 
WAVCIS,ioos:station:WAVCIS:CSI06:1,2008-12-08T07:00:00Z,28.8667,-90.4833,10.0,6.12,121.0,,'11111222,11111222,99999999' 
WAVCIS,ioos:station:WAVCIS:CSI06:1,2008-12-08T08:00:00Z,28.8667,-90.4833,10.0,7.28,133.0,,'11111222,11111222,99999999' 
WAVCIS,ioos:station:WAVCIS:CSI06:1,2008-12-08T09:00:00Z,28.8667,-90.4833,10.0,6.762,135.0,,'11111222,11111222,99999999' 
WAVCIS,ioos:station:WAVCIS:CSI06:1,2008-12-08T10:00:00Z,28.8667,-90.4833,10.0,7.16,135.0,,'11111222,11111222,99999999' 
WAVCIS,ioos:station:WAVCIS:CSI06:1,2008-12-08T11:00:00Z,28.8667,-90.4833,10.0,7.23,140.0,,'11111222,11111222,99999999' 
WAVCIS,ioos:station:WAVCIS:CSI06:1,2008-12-08T12:00:00Z,28.8667,-90.4833,10.0,7.36,157.0,,'11111222,11111222,99999999' 
WAVCIS,ioos:station:WAVCIS:CSI06:1,2008-12-08T13:00:00Z,28.8667,-90.4833,10.0,6.322,153.0,,'11111222,11111222,99999999' 
WAVCIS,ioos:station:WAVCIS:CSI06:1,2008-12-08T14:00:00Z,28.8667,-90.4833,10.0,7.03,144.0,,'11111222,11111222,99999999' 
WAVCIS,ioos:station:WAVCIS:CSI06:1,2008-12-08T15:00:00Z,28.8667,-90.4833,10.0,6.852,134.0,,'11111222,11111222,99999999' 
WAVCIS,ioos:station:WAVCIS:CSI06:1,2008-12-08T16:00:00Z,28.8667,-90.4833,10.0,7.65,132.0,,'11111222,11111222,99999999' 
WAVCIS,ioos:station:WAVCIS:CSI06:1,2008-12-08T17:00:00Z,28.8667,-90.4833,10.0,5.664,136.0,,'11111222,11111222,99999999' 
WAVCIS,ioos:station:WAVCIS:CSI06:1,2008-12-08T18:00:00Z,28.8667,-90.4833,10.0,5.04,140.0,,'11111222,11111222,99999999' 
WAVCIS,ioos:station:WAVCIS:CSI06:1,2008-12-08T19:00:00Z,28.8667,-90.4833,10.0,5.775,146.0,,'11111222,11111222,99999999' 
WAVCIS,ioos:station:WAVCIS:CSI06:1,2008-12-08T20:00:00Z,28.8667,-90.4833,10.0,6.453,147.0,,'11111222,11111222,99999999' 
WAVCIS,ioos:station:WAVCIS:CSI06:1,2008-12-08T21:00:00Z,28.8667,-90.4833,10.0,7.58,133.0,,'11111222,11111222,99999999' 
WAVCIS,ioos:station:WAVCIS:CSI06:1,2008-12-08T22:00:00Z,28.8667,-90.4833,10.0,7.59,137.0,,'11111222,11111222,99999999' 
WAVCIS,ioos:station:WAVCIS:CSI06:1,2008-12-08T23:00:00Z,28.8667,-90.4833,10.0,9.31,136.0,,'11111222,11111222,99999999' 
WAVCIS,ioos:station:WAVCIS:CSI06:1,2008-12-09T00:00:00Z,28.8667,-90.4833,10.0,10.96,129.0,,'11111222,11111222,99999999' 
WAVCIS,ioos:station:WAVCIS:CSI06:1,2008-12-09T01:00:00Z,28.8667,-90.4833,10.0,12.02,136.0,,'11111222,11111222,99999999' 
WAVCIS,ioos:station:WAVCIS:CSI06:1,2008-12-09T02:00:00Z,28.8667,-90.4833,10.0,11.81,137.0,,'11111222,11111222,99999999' 
WAVCIS,ioos:station:WAVCIS:CSI06:1,2008-12-09T03:00:00Z,28.8667,-90.4833,10.0,12.58,134.0,,'11111222,11111222,99999999' 
WAVCIS,ioos:station:WAVCIS:CSI06:1,2008-12-09T04:00:00Z,28.8667,-90.4833,10.0,11.25,138.0,,'11111222,11111222,99999999' 
WAVCIS,ioos:station:WAVCIS:CSI06:1,2008-12-09T05:00:00Z,28.8667,-90.4833,10.0,10.44,141.0,,'11111222,11111222,99999999' 